owner,sensor,date,latitude,longitude,vertical_datum,sea_water_practical_salinity,qcFlag 
SCCF RECON,ioos:station:SCCF:11:1,2016-06-01T00:00:00Z,26.4679,-82.0631,1.73,27.03,1111122 
SCCF RECON,ioos:station:SCCF:11:1,2016-06-01T01:00:00Z,26.4679,-82.0631,1.81,26.91,1111122 
SCCF RECON,ioos:station:SCCF:11:1,2016-06-01T02:00:00Z,26.4679,-82.0631,1.882,26.7,1111122 
SCCF RECON,ioos:station:SCCF:11:1,2016-06-01T03:00:00Z,26.4679,-82.0631,1.94,27.12,1111122 
SCCF RECON,ioos:station:SCCF:11:1,2016-06-01T04:00:00Z,26.4679,-82.0631,1.964,26.82,1111122 
SCCF RECON,ioos:station:SCCF:11:1,2016-06-01T05:00:00Z,26.4679,-82.0631,1.97,26.99,1111122 
SCCF RECON,ioos:station:SCCF:11:1,2016-06-01T06:00:00Z,26.4679,-82.0631,1.94,26.92,1111122 
SCCF RECON,ioos:station:SCCF:11:1,2016-06-01T07:00:00Z,26.4679,-82.0631,1.9,26.97,1111122 
SCCF RECON,ioos:station:SCCF:11:1,2016-06-01T08:00:00Z,26.4679,-82.0631,1.84,27.02,1111122 
SCCF RECON,ioos:station:SCCF:11:1,2016-06-01T09:00:00Z,26.4679,-82.0631,1.79,27.17,1111122 
SCCF RECON,ioos:station:SCCF:11:1,2016-06-01T10:00:00Z,26.4679,-82.0631,1.77,27.25,1111122 
SCCF RECON,ioos:station:SCCF:11:1,2016-06-01T11:00:00Z,26.4679,-82.0631,1.78,27.63,1111122 
SCCF RECON,ioos:station:SCCF:11:1,2016-06-01T12:00:00Z,26.4679,-82.0631,1.84,25.93,1111122 
SCCF RECON,ioos:station:SCCF:11:1,2016-06-01T13:00:00Z,26.4679,-82.0631,1.94,27.34,1111122 
SCCF RECON,ioos:station:SCCF:11:1,2016-06-01T14:00:00Z,26.4679,-82.0631,2.027,27.96,1111122 
SCCF RECON,ioos:station:SCCF:11:1,2016-06-01T15:00:00Z,26.4679,-82.0631,2.11,29.13,1111122 
SCCF RECON,ioos:station:SCCF:11:1,2016-06-01T16:00:00Z,26.4679,-82.0631,2.15,29.24,1111122 
SCCF RECON,ioos:station:SCCF:11:1,2016-06-01T17:00:00Z,26.4679,-82.0631,2.15,26.92,1111122 
SCCF RECON,ioos:station:SCCF:11:1,2016-06-01T18:00:00Z,26.4679,-82.0631,2.08,27.15,1111122 
SCCF RECON,ioos:station:SCCF:11:1,2016-06-01T19:00:00Z,26.4679,-82.0631,1.94,27.26,1111122 
SCCF RECON,ioos:station:SCCF:11:1,2016-06-01T20:00:00Z,26.4679,-82.0631,1.781,27.37,1111122 
SCCF RECON,ioos:station:SCCF:11:1,2016-06-01T21:00:00Z,26.4679,-82.0631,1.67,27.47,1111122 
SCCF RECON,ioos:station:SCCF:11:1,2016-06-01T22:00:00Z,26.4679,-82.0631,1.59,27.25,1111122 
SCCF RECON,ioos:station:SCCF:11:1,2016-06-01T23:00:00Z,26.4679,-82.0631,1.58,27.7,1111122 
SCCF RECON,ioos:station:SCCF:11:1,2016-06-02T00:00:00Z,26.4679,-82.0631,1.59,28.33,1111122 
SCCF RECON,ioos:station:SCCF:11:1,2016-06-02T01:00:00Z,26.4679,-82.0631,1.67,27.78,1111122 
SCCF RECON,ioos:station:SCCF:11:1,2016-06-02T02:00:00Z,26.4679,-82.0631,1.75,27.42,1111122 
SCCF RECON,ioos:station:SCCF:11:1,2016-06-02T03:00:00Z,26.4679,-82.0631,1.821,27.6,1111122 
SCCF RECON,ioos:station:SCCF:11:1,2016-06-02T04:00:00Z,26.4679,-82.0631,1.9,27.58,1111122 
SCCF RECON,ioos:station:SCCF:11:1,2016-06-02T05:00:00Z,26.4679,-82.0631,1.95,27.5,1111122 
SCCF RECON,ioos:station:SCCF:11:1,2016-06-02T06:00:00Z,26.4679,-82.0631,1.97,27.44,1111122 
SCCF RECON,ioos:station:SCCF:11:1,2016-06-02T07:00:00Z,26.4679,-82.0631,1.94,27.59,1111122 
SCCF RECON,ioos:station:SCCF:11:1,2016-06-02T08:00:00Z,26.4679,-82.0631,1.89,27.61,1111122 
SCCF RECON,ioos:station:SCCF:11:1,2016-06-02T09:00:00Z,26.4679,-82.0631,1.83,27.61,1111122 
SCCF RECON,ioos:station:SCCF:11:1,2016-06-02T10:00:00Z,26.4679,-82.0631,1.79,27.62,1111122 
SCCF RECON,ioos:station:SCCF:11:1,2016-06-02T11:00:00Z,26.4679,-82.0631,1.78,27.75,1111122 
SCCF RECON,ioos:station:SCCF:11:1,2016-06-02T12:00:00Z,26.4679,-82.0631,1.83,26.68,1111122 
SCCF RECON,ioos:station:SCCF:11:1,2016-06-02T13:00:00Z,26.4679,-82.0631,1.905,25.0,1111122 
SCCF RECON,ioos:station:SCCF:11:1,2016-06-02T14:00:00Z,26.4679,-82.0631,2.01,25.96,1111122 
SCCF RECON,ioos:station:SCCF:11:1,2016-06-02T15:00:00Z,26.4679,-82.0631,2.1,27.89,1111122 
SCCF RECON,ioos:station:SCCF:11:1,2016-06-02T16:00:00Z,26.4679,-82.0631,2.17,29.29,1111122 
SCCF RECON,ioos:station:SCCF:11:1,2016-06-02T17:00:00Z,26.4679,-82.0631,2.2,26.59,1111122 
SCCF RECON,ioos:station:SCCF:11:1,2016-06-02T18:00:00Z,26.4679,-82.0631,2.168,26.85,1111122 
SCCF RECON,ioos:station:SCCF:11:1,2016-06-02T19:00:00Z,26.4679,-82.0631,2.05,27.17,1111122 
SCCF RECON,ioos:station:SCCF:11:1,2016-06-02T20:00:00Z,26.4679,-82.0631,1.874,27.24,1111122 
SCCF RECON,ioos:station:SCCF:11:1,2016-06-02T21:00:00Z,26.4679,-82.0631,1.72,27.4,1111122 
SCCF RECON,ioos:station:SCCF:11:1,2016-06-02T22:00:00Z,26.4679,-82.0631,1.602,27.61,1111122 
SCCF RECON,ioos:station:SCCF:11:1,2016-06-02T23:00:00Z,26.4679,-82.0631,1.52,27.33,1111122 
SCCF RECON,ioos:station:SCCF:11:1,2016-06-03T00:00:00Z,26.4679,-82.0631,1.5,28.43,1111122 
SCCF RECON,ioos:station:SCCF:11:1,2016-06-03T01:00:00Z,26.4679,-82.0631,1.54,28.12,1111122 
SCCF RECON,ioos:station:SCCF:11:1,2016-06-03T02:00:00Z,26.4679,-82.0631,1.65,26.87,1111122 
SCCF RECON,ioos:station:SCCF:11:1,2016-06-03T03:00:00Z,26.4679,-82.0631,1.76,27.41,1111122 
SCCF RECON,ioos:station:SCCF:11:1,2016-06-03T04:00:00Z,26.4679,-82.0631,1.861,27.35,1111122 
SCCF RECON,ioos:station:SCCF:11:1,2016-06-03T05:00:00Z,26.4679,-82.0631,1.95,27.76,1111122 
SCCF RECON,ioos:station:SCCF:11:1,2016-06-03T06:00:00Z,26.4679,-82.0631,2.0,27.48,1111122 
SCCF RECON,ioos:station:SCCF:11:1,2016-06-03T07:00:00Z,26.4679,-82.0631,2.017,27.27,1111122 
SCCF RECON,ioos:station:SCCF:11:1,2016-06-03T08:00:00Z,26.4679,-82.0631,1.985,27.32,1111122 
SCCF RECON,ioos:station:SCCF:11:1,2016-06-03T09:00:00Z,26.4679,-82.0631,1.945,27.38,1111122 
SCCF RECON,ioos:station:SCCF:11:1,2016-06-03T10:00:00Z,26.4679,-82.0631,1.9,27.42,1111122 
SCCF RECON,ioos:station:SCCF:11:1,2016-06-03T11:00:00Z,26.4679,-82.0631,1.85,27.41,1111122 
SCCF RECON,ioos:station:SCCF:11:1,2016-06-03T12:00:00Z,26.4679,-82.0631,1.846,28.77,1111122 
SCCF RECON,ioos:station:SCCF:11:1,2016-06-03T13:00:00Z,26.4679,-82.0631,1.9,27.27,1111122 
SCCF RECON,ioos:station:SCCF:11:1,2016-06-03T14:00:00Z,26.4679,-82.0631,2.0,28.48,1111122 
SCCF RECON,ioos:station:SCCF:11:1,2016-06-03T15:00:00Z,26.4679,-82.0631,2.09,28.92,1111122 
SCCF RECON,ioos:station:SCCF:11:1,2016-06-03T16:00:00Z,26.4679,-82.0631,2.16,29.78,1111122 
SCCF RECON,ioos:station:SCCF:11:1,2016-06-03T17:00:00Z,26.4679,-82.0631,2.216,31.06,1111122 
SCCF RECON,ioos:station:SCCF:11:1,2016-06-03T18:00:00Z,26.4679,-82.0631,2.241,27.69,1111122 
SCCF RECON,ioos:station:SCCF:11:1,2016-06-03T19:00:00Z,26.4679,-82.0631,2.169,27.66,1111122 
SCCF RECON,ioos:station:SCCF:11:1,2016-06-03T20:00:00Z,26.4679,-82.0631,2.004,27.7,1111122 
SCCF RECON,ioos:station:SCCF:11:1,2016-06-03T21:00:00Z,26.4679,-82.0631,1.84,27.72,1111122 
SCCF RECON,ioos:station:SCCF:11:1,2016-06-03T22:00:00Z,26.4679,-82.0631,1.68,27.81,1111122 
SCCF RECON,ioos:station:SCCF:11:1,2016-06-03T23:00:00Z,26.4679,-82.0631,1.543,27.88,1111122 
SCCF RECON,ioos:station:SCCF:11:1,2016-06-04T00:00:00Z,26.4679,-82.0631,1.48,27.9,1111122 
SCCF RECON,ioos:station:SCCF:11:1,2016-06-04T01:00:00Z,26.4679,-82.0631,1.46,27.86,1111122 
SCCF RECON,ioos:station:SCCF:11:1,2016-06-04T02:00:00Z,26.4679,-82.0631,1.49,25.79,1111122 
SCCF RECON,ioos:station:SCCF:11:1,2016-06-04T03:00:00Z,26.4679,-82.0631,1.56,24.59,1111122 
SCCF RECON,ioos:station:SCCF:11:1,2016-06-04T04:00:00Z,26.4679,-82.0631,1.689,25.53,1111122 
SCCF RECON,ioos:station:SCCF:11:1,2016-06-04T05:00:00Z,26.4679,-82.0631,1.8,25.69,1111122 
SCCF RECON,ioos:station:SCCF:11:1,2016-06-04T06:00:00Z,26.4679,-82.0631,1.92,26.8,1111122 
SCCF RECON,ioos:station:SCCF:11:1,2016-06-04T07:00:00Z,26.4679,-82.0631,1.974,27.65,1111122 
SCCF RECON,ioos:station:SCCF:11:1,2016-06-04T08:00:00Z,26.4679,-82.0631,1.987,26.16,1111122 
SCCF RECON,ioos:station:SCCF:11:1,2016-06-04T09:00:00Z,26.4679,-82.0631,1.966,26.12,1111122 
SCCF RECON,ioos:station:SCCF:11:1,2016-06-04T10:00:00Z,26.4679,-82.0631,1.92,26.49,1111122 
SCCF RECON,ioos:station:SCCF:11:1,2016-06-04T11:00:00Z,26.4679,-82.0631,1.86,26.67,1111122 
SCCF RECON,ioos:station:SCCF:11:1,2016-06-04T12:00:00Z,26.4679,-82.0631,1.822,26.53,1111122 
SCCF RECON,ioos:station:SCCF:11:1,2016-06-04T13:00:00Z,26.4679,-82.0631,1.86,28.36,1111122 
SCCF RECON,ioos:station:SCCF:11:1,2016-06-04T14:00:00Z,26.4679,-82.0631,1.93,26.84,1111122 
SCCF RECON,ioos:station:SCCF:11:1,2016-06-04T15:00:00Z,26.4679,-82.0631,2.04,27.56,1111122 
SCCF RECON,ioos:station:SCCF:11:1,2016-06-04T16:00:00Z,26.4679,-82.0631,2.13,28.78,1111122 
SCCF RECON,ioos:station:SCCF:11:1,2016-06-04T17:00:00Z,26.4679,-82.0631,2.21,30.14,1111122 
SCCF RECON,ioos:station:SCCF:11:1,2016-06-04T18:00:00Z,26.4679,-82.0631,2.241,31.06,1111122 
SCCF RECON,ioos:station:SCCF:11:1,2016-06-04T19:00:00Z,26.4679,-82.0631,2.276,27.19,1111122 
SCCF RECON,ioos:station:SCCF:11:1,2016-06-04T20:00:00Z,26.4679,-82.0631,2.13,27.27,1111122 
SCCF RECON,ioos:station:SCCF:11:1,2016-06-04T21:00:00Z,26.4679,-82.0631,1.96,27.28,1111122 
SCCF RECON,ioos:station:SCCF:11:1,2016-06-04T22:00:00Z,26.4679,-82.0631,1.79,27.51,1111122 
SCCF RECON,ioos:station:SCCF:11:1,2016-06-04T23:00:00Z,26.4679,-82.0631,1.63,27.58,1111122 
SCCF RECON,ioos:station:SCCF:11:1,2016-06-05T00:00:00Z,26.4679,-82.0631,1.48,27.7,1111122 
SCCF RECON,ioos:station:SCCF:11:1,2016-06-05T01:00:00Z,26.4679,-82.0631,1.41,27.63,1111122 
SCCF RECON,ioos:station:SCCF:11:1,2016-06-05T02:00:00Z,26.4679,-82.0631,1.42,28.35,1111122 
SCCF RECON,ioos:station:SCCF:11:1,2016-06-05T03:00:00Z,26.4679,-82.0631,1.49,26.26,1111122 
SCCF RECON,ioos:station:SCCF:11:1,2016-06-05T04:00:00Z,26.4679,-82.0631,1.594,26.93,1111122 
SCCF RECON,ioos:station:SCCF:11:1,2016-06-05T05:00:00Z,26.4679,-82.0631,1.705,26.82,1111122 
SCCF RECON,ioos:station:SCCF:11:1,2016-06-05T06:00:00Z,26.4679,-82.0631,1.82,28.62,1111122 
SCCF RECON,ioos:station:SCCF:11:1,2016-06-05T07:00:00Z,26.4679,-82.0631,1.904,29.92,1111122 
SCCF RECON,ioos:station:SCCF:11:1,2016-06-05T08:00:00Z,26.4679,-82.0631,1.96,30.4,1111122 
SCCF RECON,ioos:station:SCCF:11:1,2016-06-05T09:00:00Z,26.4679,-82.0631,1.95,27.48,1111122 
SCCF RECON,ioos:station:SCCF:11:1,2016-06-05T10:00:00Z,26.4679,-82.0631,1.93,28.85,1111122 
SCCF RECON,ioos:station:SCCF:11:1,2016-06-05T11:00:00Z,26.4679,-82.0631,1.91,30.48,1111122 
SCCF RECON,ioos:station:SCCF:11:1,2016-06-05T12:00:00Z,26.4679,-82.0631,1.88,30.34,1111122 
SCCF RECON,ioos:station:SCCF:11:1,2016-06-05T13:00:00Z,26.4679,-82.0631,1.891,29.87,1111122 
SCCF RECON,ioos:station:SCCF:11:1,2016-06-05T14:00:00Z,26.4679,-82.0631,1.94,28.24,1111122 
SCCF RECON,ioos:station:SCCF:11:1,2016-06-05T15:00:00Z,26.4679,-82.0631,2.035,31.42,1111122 
SCCF RECON,ioos:station:SCCF:11:1,2016-06-05T16:00:00Z,26.4679,-82.0631,2.137,31.35,1111122 
SCCF RECON,ioos:station:SCCF:11:1,2016-06-05T17:00:00Z,26.4679,-82.0631,2.237,33.15,1111122 
SCCF RECON,ioos:station:SCCF:11:1,2016-06-05T18:00:00Z,26.4679,-82.0631,2.29,33.39,1111122 
SCCF RECON,ioos:station:SCCF:11:1,2016-06-05T19:00:00Z,26.4679,-82.0631,2.32,34.08,1111122 
SCCF RECON,ioos:station:SCCF:11:1,2016-06-05T20:00:00Z,26.4679,-82.0631,2.3,30.19,1111122 
SCCF RECON,ioos:station:SCCF:11:1,2016-06-05T21:00:00Z,26.4679,-82.0631,2.19,29.17,1111122 
SCCF RECON,ioos:station:SCCF:11:1,2016-06-05T22:00:00Z,26.4679,-82.0631,2.041,29.02,1111122 
SCCF RECON,ioos:station:SCCF:11:1,2016-06-05T23:00:00Z,26.4679,-82.0631,1.86,28.64,1111122 
SCCF RECON,ioos:station:SCCF:11:1,2016-06-06T00:00:00Z,26.4679,-82.0631,1.714,28.62,1111122 
SCCF RECON,ioos:station:SCCF:11:1,2016-06-06T01:00:00Z,26.4679,-82.0631,1.589,28.52,1111122 
SCCF RECON,ioos:station:SCCF:11:1,2016-06-06T02:00:00Z,26.4679,-82.0631,1.51,28.74,1111122 
SCCF RECON,ioos:station:SCCF:11:1,2016-06-06T03:00:00Z,26.4679,-82.0631,1.53,30.51,1111122 
SCCF RECON,ioos:station:SCCF:11:1,2016-06-06T04:00:00Z,26.4679,-82.0631,1.591,27.62,1111122 
SCCF RECON,ioos:station:SCCF:11:1,2016-06-06T05:00:00Z,26.4679,-82.0631,1.72,29.28,1111122 
SCCF RECON,ioos:station:SCCF:11:1,2016-06-06T06:00:00Z,26.4679,-82.0631,1.85,30.44,1111122 
SCCF RECON,ioos:station:SCCF:11:1,2016-06-06T07:00:00Z,26.4679,-82.0631,1.961,32.31,1111122 
SCCF RECON,ioos:station:SCCF:11:1,2016-06-06T08:00:00Z,26.4679,-82.0631,2.05,33.63,1111122 
SCCF RECON,ioos:station:SCCF:11:1,2016-06-06T09:00:00Z,26.4679,-82.0631,2.079,30.2,1111122 
SCCF RECON,ioos:station:SCCF:11:1,2016-06-06T10:00:00Z,26.4679,-82.0631,2.09,32.49,1111122 
SCCF RECON,ioos:station:SCCF:11:1,2016-06-06T11:00:00Z,26.4679,-82.0631,2.08,33.44,1111122 
SCCF RECON,ioos:station:SCCF:11:1,2016-06-06T12:00:00Z,26.4679,-82.0631,2.06,33.81,1111122 
SCCF RECON,ioos:station:SCCF:11:1,2016-06-06T13:00:00Z,26.4679,-82.0631,2.04,31.89,1111122 
SCCF RECON,ioos:station:SCCF:11:1,2016-06-06T14:00:00Z,26.4679,-82.0631,2.043,33.67,1111122 
SCCF RECON,ioos:station:SCCF:11:1,2016-06-06T15:00:00Z,26.4679,-82.0631,2.1,33.73,1111122 
SCCF RECON,ioos:station:SCCF:11:1,2016-06-06T16:00:00Z,26.4679,-82.0631,2.18,34.03,1111122 
SCCF RECON,ioos:station:SCCF:11:1,2016-06-06T17:00:00Z,26.4679,-82.0631,2.261,34.25,1111122 
SCCF RECON,ioos:station:SCCF:11:1,2016-06-06T18:00:00Z,26.4679,-82.0631,2.33,34.4,1111122 
SCCF RECON,ioos:station:SCCF:11:1,2016-06-06T19:00:00Z,26.4679,-82.0631,2.39,34.37,1111122 
SCCF RECON,ioos:station:SCCF:11:1,2016-06-06T20:00:00Z,26.4679,-82.0631,2.42,34.39,1111122 
SCCF RECON,ioos:station:SCCF:11:1,2016-06-06T21:00:00Z,26.4679,-82.0631,2.42,34.32,1111122 
SCCF RECON,ioos:station:SCCF:11:1,2016-06-06T22:00:00Z,26.4679,-82.0631,2.39,31.81,1111122 
SCCF RECON,ioos:station:SCCF:11:1,2016-06-06T23:00:00Z,26.4679,-82.0631,2.27,32.91,1111122 
SCCF RECON,ioos:station:SCCF:11:1,2016-06-07T00:00:00Z,26.4679,-82.0631,2.1,31.79,1111122 
SCCF RECON,ioos:station:SCCF:11:1,2016-06-07T01:00:00Z,26.4679,-82.0631,1.97,31.36,1111122 
SCCF RECON,ioos:station:SCCF:11:1,2016-06-07T02:00:00Z,26.4679,-82.0631,1.87,31.14,1111122 
SCCF RECON,ioos:station:SCCF:11:1,2016-06-07T03:00:00Z,26.4679,-82.0631,1.8,30.91,1111122 
SCCF RECON,ioos:station:SCCF:11:1,2016-06-07T04:00:00Z,26.4679,-82.0631,1.82,34.35,1111122 
SCCF RECON,ioos:station:SCCF:11:1,2016-06-07T05:00:00Z,26.4679,-82.0631,1.88,34.43,1111122 
SCCF RECON,ioos:station:SCCF:11:1,2016-06-07T06:00:00Z,26.4679,-82.0631,1.95,34.4,1111122 
SCCF RECON,ioos:station:SCCF:11:1,2016-06-07T07:00:00Z,26.4679,-82.0631,2.02,34.4,1111122 
SCCF RECON,ioos:station:SCCF:11:1,2016-06-07T08:00:00Z,26.4679,-82.0631,2.08,34.51,1111122 
SCCF RECON,ioos:station:SCCF:11:1,2016-06-07T09:00:00Z,26.4679,-82.0631,2.13,34.5,1111122 
SCCF RECON,ioos:station:SCCF:11:1,2016-06-07T10:00:00Z,26.4679,-82.0631,2.15,34.48,1111122 
SCCF RECON,ioos:station:SCCF:11:1,2016-06-07T11:00:00Z,26.4679,-82.0631,2.12,32.29,1111122 
SCCF RECON,ioos:station:SCCF:11:1,2016-06-07T12:00:00Z,26.4679,-82.0631,2.099,32.63,1111122 
SCCF RECON,ioos:station:SCCF:11:1,2016-06-07T13:00:00Z,26.4679,-82.0631,2.06,32.43,1111122 
SCCF RECON,ioos:station:SCCF:11:1,2016-06-07T14:00:00Z,26.4679,-82.0631,2.04,32.83,1111122 
SCCF RECON,ioos:station:SCCF:11:1,2016-06-07T15:00:00Z,26.4679,-82.0631,2.05,33.68,1111122 
SCCF RECON,ioos:station:SCCF:11:1,2016-06-07T16:00:00Z,26.4679,-82.0631,2.1,34.97,1111122 
SCCF RECON,ioos:station:SCCF:11:1,2016-06-07T17:00:00Z,26.4679,-82.0631,2.16,34.7,1111122 
SCCF RECON,ioos:station:SCCF:11:1,2016-06-07T18:00:00Z,26.4679,-82.0631,2.21,34.96,1111122 
SCCF RECON,ioos:station:SCCF:11:1,2016-06-07T19:00:00Z,26.4679,-82.0631,2.25,34.77,1111122 
SCCF RECON,ioos:station:SCCF:11:1,2016-06-07T20:00:00Z,26.4679,-82.0631,2.279,34.76,1111122 
SCCF RECON,ioos:station:SCCF:11:1,2016-06-07T21:00:00Z,26.4679,-82.0631,2.26,32.21,1111122 
SCCF RECON,ioos:station:SCCF:11:1,2016-06-07T22:00:00Z,26.4679,-82.0631,2.2,32.02,1111122 
SCCF RECON,ioos:station:SCCF:11:1,2016-06-07T23:00:00Z,26.4679,-82.0631,2.087,31.82,1111122 
SCCF RECON,ioos:station:SCCF:11:1,2016-06-08T00:00:00Z,26.4679,-82.0631,1.95,31.53,1111122 
SCCF RECON,ioos:station:SCCF:11:1,2016-06-08T01:00:00Z,26.4679,-82.0631,1.812,31.38,1111122 
SCCF RECON,ioos:station:SCCF:11:1,2016-06-08T02:00:00Z,26.4679,-82.0631,1.68,31.17,1111122 
SCCF RECON,ioos:station:SCCF:11:1,2016-06-08T03:00:00Z,26.4679,-82.0631,1.58,31.41,1111122 
SCCF RECON,ioos:station:SCCF:11:1,2016-06-08T04:00:00Z,26.4679,-82.0631,1.53,32.4,1111122 
SCCF RECON,ioos:station:SCCF:11:1,2016-06-08T05:00:00Z,26.4679,-82.0631,1.55,33.98,1111122 
SCCF RECON,ioos:station:SCCF:11:1,2016-06-08T06:00:00Z,26.4679,-82.0631,1.61,33.62,1111122 
SCCF RECON,ioos:station:SCCF:11:1,2016-06-08T07:00:00Z,26.4679,-82.0631,1.69,31.85,1111122 
SCCF RECON,ioos:station:SCCF:11:1,2016-06-08T08:00:00Z,26.4679,-82.0631,1.776,31.88,1111122 
SCCF RECON,ioos:station:SCCF:11:1,2016-06-08T09:00:00Z,26.4679,-82.0631,1.85,31.88,1111122 
SCCF RECON,ioos:station:SCCF:11:1,2016-06-08T10:00:00Z,26.4679,-82.0631,1.909,31.98,1111122 
SCCF RECON,ioos:station:SCCF:11:1,2016-06-08T11:00:00Z,26.4679,-82.0631,1.91,31.87,1111122 
SCCF RECON,ioos:station:SCCF:11:1,2016-06-08T12:00:00Z,26.4679,-82.0631,1.89,31.71,1111122 
SCCF RECON,ioos:station:SCCF:11:1,2016-06-08T13:00:00Z,26.4679,-82.0631,1.88,31.89,1111122 
SCCF RECON,ioos:station:SCCF:11:1,2016-06-08T14:00:00Z,26.4679,-82.0631,1.87,31.06,1111122 
SCCF RECON,ioos:station:SCCF:11:1,2016-06-08T15:00:00Z,26.4679,-82.0631,1.87,31.06,1111122 
SCCF RECON,ioos:station:SCCF:11:1,2016-06-08T16:00:00Z,26.4679,-82.0631,1.899,31.18,1111122 
SCCF RECON,ioos:station:SCCF:11:1,2016-06-08T17:00:00Z,26.4679,-82.0631,1.94,31.22,1111122 
SCCF RECON,ioos:station:SCCF:11:1,2016-06-08T18:00:00Z,26.4679,-82.0631,2.0,31.31,1111122 
SCCF RECON,ioos:station:SCCF:11:1,2016-06-08T19:00:00Z,26.4679,-82.0631,2.05,32.5,1111122 
SCCF RECON,ioos:station:SCCF:11:1,2016-06-08T20:00:00Z,26.4679,-82.0631,2.11,32.14,1111122 
SCCF RECON,ioos:station:SCCF:11:1,2016-06-08T21:00:00Z,26.4679,-82.0631,2.13,31.48,1111122 
SCCF RECON,ioos:station:SCCF:11:1,2016-06-08T22:00:00Z,26.4679,-82.0631,2.12,31.77,1111122 
SCCF RECON,ioos:station:SCCF:11:1,2016-06-08T23:00:00Z,26.4679,-82.0631,2.08,31.72,1111122 
SCCF RECON,ioos:station:SCCF:11:1,2016-06-09T00:00:00Z,26.4679,-82.0631,1.997,31.72,1111122 
SCCF RECON,ioos:station:SCCF:11:1,2016-06-09T01:00:00Z,26.4679,-82.0631,1.885,31.77,1111122 
SCCF RECON,ioos:station:SCCF:11:1,2016-06-09T02:00:00Z,26.4679,-82.0631,1.76,31.74,1111122 
SCCF RECON,ioos:station:SCCF:11:1,2016-06-09T03:00:00Z,26.4679,-82.0631,1.64,31.67,1111122 
SCCF RECON,ioos:station:SCCF:11:1,2016-06-09T04:00:00Z,26.4679,-82.0631,1.54,31.62,1111122 
SCCF RECON,ioos:station:SCCF:11:1,2016-06-09T05:00:00Z,26.4679,-82.0631,1.5,31.79,1111122 
SCCF RECON,ioos:station:SCCF:11:1,2016-06-09T06:00:00Z,26.4679,-82.0631,1.52,31.43,1111122 
SCCF RECON,ioos:station:SCCF:11:1,2016-06-09T07:00:00Z,26.4679,-82.0631,1.58,30.1,1111122 
SCCF RECON,ioos:station:SCCF:11:1,2016-06-09T08:00:00Z,26.4679,-82.0631,1.66,29.04,1111122 
SCCF RECON,ioos:station:SCCF:11:1,2016-06-09T09:00:00Z,26.4679,-82.0631,1.75,29.82,1111122 
SCCF RECON,ioos:station:SCCF:11:1,2016-06-09T10:00:00Z,26.4679,-82.0631,1.825,30.96,1111122 
SCCF RECON,ioos:station:SCCF:11:1,2016-06-09T11:00:00Z,26.4679,-82.0631,1.88,31.55,1111122 
SCCF RECON,ioos:station:SCCF:11:1,2016-06-09T12:00:00Z,26.4679,-82.0631,1.9,30.37,1111122 
SCCF RECON,ioos:station:SCCF:11:1,2016-06-09T13:00:00Z,26.4679,-82.0631,1.9,30.59,1111122 
SCCF RECON,ioos:station:SCCF:11:1,2016-06-09T14:00:00Z,26.4679,-82.0631,1.9,30.51,1111122 
SCCF RECON,ioos:station:SCCF:11:1,2016-06-09T15:00:00Z,26.4679,-82.0631,1.871,30.22,1111122 
SCCF RECON,ioos:station:SCCF:11:1,2016-06-09T16:00:00Z,26.4679,-82.0631,1.87,30.45,1111122 
SCCF RECON,ioos:station:SCCF:11:1,2016-06-09T17:00:00Z,26.4679,-82.0631,1.88,30.21,1111122 
SCCF RECON,ioos:station:SCCF:11:1,2016-06-09T18:00:00Z,26.4679,-82.0631,1.92,30.14,1111122 
SCCF RECON,ioos:station:SCCF:11:1,2016-06-09T19:00:00Z,26.4679,-82.0631,1.97,30.74,1111122 
SCCF RECON,ioos:station:SCCF:11:1,2016-06-09T20:00:00Z,26.4679,-82.0631,2.02,30.38,1111122 
SCCF RECON,ioos:station:SCCF:11:1,2016-06-09T21:00:00Z,26.4679,-82.0631,2.06,30.84,1111122 
SCCF RECON,ioos:station:SCCF:11:1,2016-06-09T22:00:00Z,26.4679,-82.0631,2.07,31.47,1111122 
SCCF RECON,ioos:station:SCCF:11:1,2016-06-09T23:00:00Z,26.4679,-82.0631,2.08,30.32,1111122 
SCCF RECON,ioos:station:SCCF:11:1,2016-06-10T00:00:00Z,26.4679,-82.0631,2.04,30.31,1111122 
SCCF RECON,ioos:station:SCCF:11:1,2016-06-10T01:00:00Z,26.4679,-82.0631,1.95,30.38,1111122 
SCCF RECON,ioos:station:SCCF:11:1,2016-06-10T02:00:00Z,26.4679,-82.0631,1.84,30.52,1111122 
SCCF RECON,ioos:station:SCCF:11:1,2016-06-10T03:00:00Z,26.4679,-82.0631,1.73,30.62,1111122 
SCCF RECON,ioos:station:SCCF:11:1,2016-06-10T04:00:00Z,26.4679,-82.0631,1.629,30.39,1111122 
SCCF RECON,ioos:station:SCCF:11:1,2016-06-10T05:00:00Z,26.4679,-82.0631,1.56,30.61,1111122 
SCCF RECON,ioos:station:SCCF:11:1,2016-06-10T06:00:00Z,26.4679,-82.0631,1.551,31.04,1111122 
SCCF RECON,ioos:station:SCCF:11:1,2016-06-10T07:00:00Z,26.4679,-82.0631,1.58,27.18,1111122 
SCCF RECON,ioos:station:SCCF:11:1,2016-06-10T08:00:00Z,26.4679,-82.0631,1.64,25.69,1111122 
SCCF RECON,ioos:station:SCCF:11:1,2016-06-10T09:00:00Z,26.4679,-82.0631,1.73,28.74,1111122 
SCCF RECON,ioos:station:SCCF:11:1,2016-06-10T10:00:00Z,26.4679,-82.0631,1.81,28.96,1111122 
SCCF RECON,ioos:station:SCCF:11:1,2016-06-10T11:00:00Z,26.4679,-82.0631,1.87,28.88,1111122 
SCCF RECON,ioos:station:SCCF:11:1,2016-06-10T12:00:00Z,26.4679,-82.0631,1.91,28.92,1111122 
SCCF RECON,ioos:station:SCCF:11:1,2016-06-10T13:00:00Z,26.4679,-82.0631,1.913,28.5,1111122 
SCCF RECON,ioos:station:SCCF:11:1,2016-06-10T14:00:00Z,26.4679,-82.0631,1.92,28.35,1111122 
SCCF RECON,ioos:station:SCCF:11:1,2016-06-10T15:00:00Z,26.4679,-82.0631,1.92,27.97,1111122 
SCCF RECON,ioos:station:SCCF:11:1,2016-06-10T16:00:00Z,26.4679,-82.0631,1.902,28.15,1111122 
SCCF RECON,ioos:station:SCCF:11:1,2016-06-10T17:00:00Z,26.4679,-82.0631,1.89,27.83,1111122 
SCCF RECON,ioos:station:SCCF:11:1,2016-06-10T18:00:00Z,26.4679,-82.0631,1.88,27.38,1111122 
SCCF RECON,ioos:station:SCCF:11:1,2016-06-10T19:00:00Z,26.4679,-82.0631,1.898,27.05,1111122 
SCCF RECON,ioos:station:SCCF:11:1,2016-06-10T20:00:00Z,26.4679,-82.0631,1.94,27.24,1111122 
SCCF RECON,ioos:station:SCCF:11:1,2016-06-10T21:00:00Z,26.4679,-82.0631,1.97,27.85,1111122 
SCCF RECON,ioos:station:SCCF:11:1,2016-06-10T22:00:00Z,26.4679,-82.0631,2.0,28.17,1111122 
SCCF RECON,ioos:station:SCCF:11:1,2016-06-10T23:00:00Z,26.4679,-82.0631,2.02,27.54,1111122 
SCCF RECON,ioos:station:SCCF:11:1,2016-06-11T00:00:00Z,26.4679,-82.0631,2.0,28.06,1111122 
SCCF RECON,ioos:station:SCCF:11:1,2016-06-11T01:00:00Z,26.4679,-82.0631,1.97,28.16,1111122 
SCCF RECON,ioos:station:SCCF:11:1,2016-06-11T02:00:00Z,26.4679,-82.0631,1.92,28.64,1111122 
SCCF RECON,ioos:station:SCCF:11:1,2016-06-11T03:00:00Z,26.4679,-82.0631,1.85,29.54,1111122 
SCCF RECON,ioos:station:SCCF:11:1,2016-06-11T04:00:00Z,26.4679,-82.0631,1.767,29.3,1111122 
SCCF RECON,ioos:station:SCCF:11:1,2016-06-11T05:00:00Z,26.4679,-82.0631,1.69,29.19,1111122 
SCCF RECON,ioos:station:SCCF:11:1,2016-06-11T06:00:00Z,26.4679,-82.0631,1.65,28.08,1111122 
SCCF RECON,ioos:station:SCCF:11:1,2016-06-11T07:00:00Z,26.4679,-82.0631,1.63,25.23,1111122 
SCCF RECON,ioos:station:SCCF:11:1,2016-06-11T08:00:00Z,26.4679,-82.0631,1.65,21.44,1111122 
SCCF RECON,ioos:station:SCCF:11:1,2016-06-11T09:00:00Z,26.4679,-82.0631,1.72,24.87,1111122 
SCCF RECON,ioos:station:SCCF:11:1,2016-06-11T10:00:00Z,26.4679,-82.0631,1.79,27.01,1111122 
SCCF RECON,ioos:station:SCCF:11:1,2016-06-11T11:00:00Z,26.4679,-82.0631,1.86,27.73,1111122 
SCCF RECON,ioos:station:SCCF:11:1,2016-06-11T12:00:00Z,26.4679,-82.0631,1.92,27.75,1111122 
SCCF RECON,ioos:station:SCCF:11:1,2016-06-11T13:00:00Z,26.4679,-82.0631,1.97,27.13,1111122 
SCCF RECON,ioos:station:SCCF:11:1,2016-06-11T14:00:00Z,26.4679,-82.0631,1.97,25.96,1111122 
SCCF RECON,ioos:station:SCCF:11:1,2016-06-11T15:00:00Z,26.4679,-82.0631,1.95,26.79,1111122 
SCCF RECON,ioos:station:SCCF:11:1,2016-06-11T16:00:00Z,26.4679,-82.0631,1.93,26.58,1111122 
SCCF RECON,ioos:station:SCCF:11:1,2016-06-11T17:00:00Z,26.4679,-82.0631,1.93,27.84,1111122 
SCCF RECON,ioos:station:SCCF:11:1,2016-06-11T18:00:00Z,26.4679,-82.0631,1.89,28.85,1111122 